Terminal Aerodrome Forecast
Issued by NWS Detroit/Pontiac, MI

Home | Current Version | Previous Version | Text Only | Print | Product List | Glossary On
Versions: 1 2 3 4 5 6 7 8 9 10 11 12 13
000
FTUS43 KDTX 261721
TAFFNT
TAF
KFNT 261721Z 2618/2718 22010KT P6SM BKN040 BKN050
      TEMPO 2621/2624 6SM -SHRA OVC040
     FM270100 VRB04KT P6SM SCT050 BKN150
     FM270900 20005KT 3SM BR SCT018 BKN200
     FM271300 20009KT P6SM BKN035=

USA.gov is the U.S. government's official web portal to all federal, state and local government web resources and services.